Regional Weather Roundup
Issued by NWS Cleveland, OH

Home | Current Version | Previous Version | Graphics & Text | Print | Product List | Glossary On
Versions: 1 2 3 4 5 6 7 8 9 10 11 12 13 14 15 16 17 18 19 20 21 22 23 24 25 26 27 28 29 30 31 32 33 34 35 36 37 38 39 40 41 42 43 44 45 46 47 48 49 50
970
ASUS41 KCLE 171110
RWRCLE
OHIO REGIONAL WEATHER ROUNDUP
NATIONAL WEATHER SERVICE WILMINGTON, OH
600 AM EST SUN DEC 17 2017

NOTE: "FAIR" INDICATES FEW OR NO CLOUDS BELOW 12,000 FEET WITH NO
SIGNIFICANT WEATHER AND/OR OBSTRUCTIONS TO VISIBILITY.

OHZ001>008-015>018-024>027-034-035-043-044-171200-
   NORTHWEST OHIO

CITY           SKY/WX    TMP DP  RH WIND       PRES   REMARKS
DEFIANCE       FOG       30  28  92 E7        30.15R VSB 1/2 WCI  23
FINDLAY        FAIR      27  23  85 E3        30.13S FOG
TOLEDO EXPRESS CLOUDY    29  29 100 NE8       30.15F FOG     WCI  21
TOLEDO EXEC    CLOUDY    30  27  88 NE6       30.17S WCI  24
LIMA           FAIR      33  28  81 S7        30.13R WCI  27
$$

OHZ009>014-019>023-028>033-038-089-171200-
   NORTHEAST OHIO

CITY           SKY/WX    TMP DP  RH WIND       PRES   REMARKS
CLE-HOPKINS    MOCLDY    24  21  88 CALM      30.19S FOG
CLE-LAKEFRONT  FAIR      29  26  89 CALM      30.18R FOG
CUY CO. ARPT   NOT AVBL
LORAIN-ELYRIA  FAIR      19  14  81 CALM      30.17R HAZE
ASHTABULA      FAIR      22  22 100 E3        30.19R FOG
AKRON-CANTON   FAIR      30  24  78 SW5       30.16R WCI  25
WOOSTER        FAIR      29  24  82 CALM      30.16R
MANSFIELD      FAIR      31  26  82 S9        30.15R WCI  23
YOUNGSTOWN     FAIR      23  22  96 CALM      30.16R FOG
$$

OHZ042-051>053-060>062-070>072-077>081-171200-
  SOUTHWEST OHIO

CITY           SKY/WX    TMP DP  RH WIND       PRES   REMARKS
CINC-COVINGTON CLOUDY    39  30  70 S8        30.16S
CINC-LUNKEN    FAIR      29  27  92 W5        30.20S WCI  24
HAMILTON       FAIR      32  30  92 CALM      30.17F
DAYTON         MOCLDY    37  30  75 S10       30.14S
WRIGHT-PAT AFB MOCLDY    34  30  87 CALM      30.14S
DAYTON GENERAL FAIR      36  29  75 S9        30.14F
WILMINGTON     FAIR      35  30  82 S7        30.15F WCI  29
$$

OHZ036-037-039>041-045>050-054>059-063>069-073>076-082>088-171200-
  CENTRAL AND SOUTHEAST OHIO

CITY           SKY/WX    TMP DP  RH WIND       PRES   REMARKS
COLUMBUS       FAIR      32  27  81 E3        30.17S
OSU AIRPORT    FAIR      31  28  89 SE6       30.16S WCI  25
BOLTON FIELD   FAIR      31  28  86 S5        30.17F WCI  27
RICKENBACK AFB FAIR      35  29  79 S6        30.18S
NEWARK         FAIR      26  23  88 CALM      30.18R
MARION         FAIR      32  27  81 S8        30.16R WCI  25
LANCASTER      FAIR      32  28  85 SE5       30.18R WCI  27
ZANESVILLE     FAIR      28  23  81 CALM      30.20R
NEW PHILLY     FAIR      25  22  88 CALM      30.19R
$$




USA.gov is the U.S. government's official web portal to all federal, state and local government web resources and services.